This demonstration page uses our WeatherBlox Daily Observations layout. Learn more.

Left ArrowRight Arrow

Hourly Observations for November 11, 2016

Temp ( °F °C ) Dew Point ( °F °C ) Humidity (%) Winds ( mph kmh ) Pressure ( in mb ) Visibility ( mi km ) Precip ( " mm )
12:51 am 00:51 Clear 50 10 41 5 71 71 E 6 9 30.19 1022 10 16.0934 N/A
1:51 am 01:51 Clear 49 9.4 41 5 74 74 E 8 13 30.18 1022 10 16.0934 N/A
2:51 am 02:51 Clear 52 11.1 41 5 66 66 SE 8 13 30.17 1022 10 16.0934 N/A
3:51 am 03:51 Clear 49 9.4 41 5 74 74 SE 6 9 30.18 1022 10 16.0934 N/A
4:51 am 04:51 Clear 50 10 40 4.4 68 68 SE 8 13 30.18 1022 10 16.0934 N/A
5:51 am 05:51 Clear 51 10.6 40 4.4 66 66 ESE 10 17 30.19 1023 10 16.0934 N/A
6:51 am 06:51 Sunny 50 10 40 4.4 68 68 SE 9 15 30.22 1023 10 16.0934 N/A
7:51 am 07:51 Sunny 54 12.2 40 4.4 59 59 SE 12 19 30.24 1024 10 16.0934 N/A
8:51 am 08:51 Sunny 58 14.4 40 4.4 51 51 ESE 9 15 30.25 1024 10 16.0934 N/A
9:51 am 09:51 Sunny 61 16.1 42 5.6 50 50 SE 8 13 30.24 1024 10 16.0934 N/A
10:51 am 10:51 Sunny 65 18.3 42 5.6 43 43 VRB 5 7 30.23 1024 10 16.0934 N/A
11:51 am 11:51 Sunny 67 19.4 42 5.6 41 41 SE 13 20 30.19 1022 10 16.0934 N/A
12:51 pm 12:51 Sunny 70 21.1 42 5.6 37 37 ESE 8 13 30.14 1021 10 16.0934 N/A
1:51 pm 13:51 Mostly Sunny 71 21.7 41 5 34 34 S 7 11 30.11 1020 10 16.0934 N/A
2:51 pm 14:51 Mostly Sunny 71 21.7 41 5 34 34 VRB 7 11 30.1 1019 10 16.0934 N/A
3:51 pm 15:51 Sunny 71 21.7 39 3.9 31 31 S 5 7 30.1 1019 10 16.0934 N/A
4:51 pm 16:51 Sunny 69 20.6 39 3.9 33 33 W 3 6 30.1 1019 10 16.0934 N/A
5:51 pm 17:51 Clear 63 17.2 40 4.4 43 43 N N/A 30.11 1020 10 16.0934 N/A
6:51 pm 18:51 Clear 57 13.9 41 5 55 55 N N/A 30.15 1021 10 16.0934 N/A
7:51 pm 19:51 Mostly Cloudy 56 13.3 41 5 57 57 E 3 6 30.16 1021 10 16.0934 N/A
8:51 pm 20:51 Clear 57 13.9 40 4.4 53 53 SSE 6 9 30.16 1021 10 16.0934 N/A
9:51 pm 21:51 Clear 55 12.8 40 4.4 57 57 S 5 7 30.17 1022 10 16.0934 N/A
10:51 pm 22:51 Clear 57 13.9 40 4.4 53 53 SE 7 11 30.16 1022 10 16.0934 N/A
11:51 pm 23:51 Partly Cloudy 54 12.2 39 3.9 57 57 SE 5 7 30.17 1022 10 16.0934 N/A

Powered by AerisWeather